Previsão horária em Juva

Hoje, 22 Junho, Terça-feira

Tempo Temperatura Precipitação Vento Pressão Humidade
00:00 +21°C° 0 mm 3 m/s 751 mmHg 81%
01:00 +21°C° 0 mm 2 m/s 751 mmHg 81%
02:00 +21°C° 0 mm 2 m/s 751 mmHg 82%
03:00 +21°C° 0 mm 2 m/s 751 mmHg 81%
04:00 +21°C° 0 mm 2 m/s 751 mmHg 81%
05:00 +23°C° 0 mm 2 m/s 751 mmHg 81%
06:00 +24°C° 0.1 mm 2 m/s 751 mmHg 74%
07:00 +26°C° 0.1 mm 2 m/s 751 mmHg 67%
08:00 +28°C° 0.1 mm 3 m/s 751 mmHg 60%
09:00 +29°C° 0 mm 3 m/s 751 mmHg 54%
10:00 +32°C° 0 mm 4 m/s 751 mmHg 47%
11:00 +33°C° 0 mm 5 m/s 751 mmHg 41%
12:00 +33°C° 0 mm 5 m/s 751 mmHg 37%
13:00 +34°C° 0 mm 5 m/s 751 mmHg 33%
14:00 +35°C° 0 mm 5 m/s 750 mmHg 29%
15:00 +34°C° 0 mm 5 m/s 750 mmHg 31%
16:00 +34°C° 0 mm 5 m/s 750 mmHg 33%
17:00 +34°C° 0 mm 5 m/s 749 mmHg 35%
18:00 +32°C° 0.2 mm 4 m/s 749 mmHg 44%
19:00 +29°C° 0.2 mm 4 m/s 749 mmHg 53%
20:00 +27°C° 0.2 mm 4 m/s 749 mmHg 63%
21:00 +25°C° 0.4 mm 3 m/s 749 mmHg 70%
22:00 +22°C° 0.4 mm 3 m/s 750 mmHg 77%
23:00 +20°C° 0.4 mm 3 m/s 750 mmHg 85%

Amanhã, 23 Junho, Quarta-feira

Tempo Temperatura Precipitação Vento Pressão Humidade
00:00 +19°C° 0.1 mm 3 m/s 750 mmHg 88%
01:00 +19°C° 0.1 mm 3 m/s 750 mmHg 92%
02:00 +18°C° 0.1 mm 3 m/s 750 mmHg 95%
03:00 +19°C° 0 mm 3 m/s 750 mmHg 94%
04:00 +19°C° 0 mm 2 m/s 750 mmHg 93%
05:00 +20°C° 0 mm 2 m/s 750 mmHg 92%
06:00 +23°C° 0 mm 2 m/s 751 mmHg 83%
07:00 +25°C° 0 mm 2 m/s 751 mmHg 74%
08:00 +27°C° 0 mm 2 m/s 751 mmHg 65%
09:00 +28°C° 0 mm 3 m/s 751 mmHg 59%
10:00 +29°C° 0 mm 3 m/s 751 mmHg 54%
11:00 +31°C° 0 mm 3 m/s 751 mmHg 48%
12:00 +31°C° 0 mm 3 m/s 751 mmHg 48%
13:00 +31°C° 0 mm 3 m/s 751 mmHg 48%
14:00 +31°C° 0 mm 2 m/s 751 mmHg 48%
15:00 +30°C° 0 mm 2 m/s 751 mmHg 50%
16:00 +29°C° 0 mm 2 m/s 751 mmHg 53%
17:00 +29°C° 0 mm 2 m/s 751 mmHg 55%
18:00 +28°C° 0.3 mm 2 m/s 751 mmHg 60%
19:00 +27°C° 0.3 mm 2 m/s 751 mmHg 64%
20:00 +26°C° 0.3 mm 2 m/s 751 mmHg 69%
21:00 +25°C° 0.6 mm 2 m/s 751 mmHg 76%
22:00 +23°C° 0.6 mm 2 m/s 751 mmHg 83%
23:00 +21°C° 0.6 mm 3 m/s 751 mmHg 90%

Depois de amanhã, 24 Junho, Quinta-feira

Tempo Temperatura Precipitação Vento Pressão Humidade
00:00 +20°C° 0.1 mm 2 m/s 751 mmHg 92%
01:00 +20°C° 0.1 mm 2 m/s 751 mmHg 95%
02:00 +20°C° 0.1 mm 1 m/s 751 mmHg 97%
03:00 +20°C° 0.1 mm 1 m/s 751 mmHg 96%
04:00 +21°C° 0.1 mm 1 m/s 751 mmHg 96%
05:00 +21°C° 0.1 mm 1 m/s 751 mmHg 95%
06:00 +21°C° 0 mm 2 m/s 751 mmHg 89%
07:00 +23°C° 0 mm 2 m/s 751 mmHg 83%
08:00 +24°C° 0 mm 2 m/s 751 mmHg 77%
09:00 +24°C° 0.3 mm 2 m/s 751 mmHg 76%
10:00 +25°C° 0.3 mm 2 m/s 752 mmHg 75%
11:00 +25°C° 0.3 mm 2 m/s 752 mmHg 73%
12:00 +25°C° 0.2 mm 2 m/s 752 mmHg 71%
13:00 +25°C° 0.2 mm 2 m/s 752 mmHg 69%
14:00 +26°C° 0.2 mm 1 m/s 752 mmHg 66%
15:00 +26°C° 0.6 mm 1 m/s 752 mmHg 67%
16:00 +26°C° 0.6 mm 1 m/s 752 mmHg 67%
17:00 +26°C° 0.6 mm 1 m/s 752 mmHg 67%
18:00 +25°C° 0.9 mm 1 m/s 752 mmHg 70%
19:00 +24°C° 0.9 mm 1 m/s 752 mmHg 73%
20:00 +23°C° 0.9 mm 1 m/s 752 mmHg 77%
21:00 +22°C° 0 mm 1 m/s 752 mmHg 77%
22:00 +21°C° 0 mm 1 m/s 752 mmHg 78%
23:00 +19°C° 0 mm 2 m/s 752 mmHg 79%

25 Junho, Sexta-feira

Tempo Temperatura Precipitação Vento Pressão Humidade
00:00 +18°C° 0 mm 2 m/s 753 mmHg 78%
01:00 +18°C° 0 mm 2 m/s 753 mmHg 77%
02:00 +18°C° 0 mm 2 m/s 753 mmHg 77%
03:00 +18°C° 0 mm 2 m/s 753 mmHg 78%
04:00 +18°C° 0 mm 2 m/s 753 mmHg 80%
05:00 +18°C° 0 mm 2 m/s 752 mmHg 82%
06:00 +19°C° 0 mm 2 m/s 753 mmHg 78%
07:00 +19°C° 0 mm 2 m/s 753 mmHg 75%
08:00 +20°C° 0 mm 2 m/s 753 mmHg 71%
09:00 +21°C° 0 mm 2 m/s 753 mmHg 66%
10:00 +23°C° 0 mm 2 m/s 753 mmHg 61%
11:00 +24°C° 0 mm 2 m/s 753 mmHg 56%
12:00 +25°C° 0 mm 2 m/s 753 mmHg 53%
13:00 +25°C° 0 mm 2 m/s 753 mmHg 50%
14:00 +26°C° 0 mm 2 m/s 753 mmHg 47%
15:00 +26°C° 0 mm 2 m/s 752 mmHg 46%
16:00 +27°C° 0 mm 2 m/s 752 mmHg 46%
17:00 +27°C° 0 mm 1 m/s 752 mmHg 45%
18:00 +26°C° 0 mm 2 m/s 752 mmHg 50%
19:00 +25°C° 0 mm 2 m/s 752 mmHg 55%
20:00 +24°C° 0 mm 2 m/s 752 mmHg 60%
21:00 +21°C° 0 mm 2 m/s 752 mmHg 63%
22:00 +19°C° 0 mm 2 m/s 752 mmHg 66%
23:00 +18°C° 0 mm 2 m/s 752 mmHg 69%

26 Junho, Sábado

Tempo Temperatura Precipitação Vento Pressão Humidade
00:00 +17°C° 0 mm 2 m/s 752 mmHg 70%
01:00 +17°C° 0 mm 2 m/s 752 mmHg 72%
02:00 +16°C° 0 mm 2 m/s 752 mmHg 73%
03:00 +17°C° 0 mm 2 m/s 752 mmHg 73%
04:00 +17°C° 0 mm 2 m/s 752 mmHg 73%
05:00 +17°C° 0 mm 2 m/s 752 mmHg 73%
06:00 +19°C° 0 mm 3 m/s 752 mmHg 70%
07:00 +20°C° 0 mm 3 m/s 752 mmHg 67%
08:00 +22°C° 0 mm 3 m/s 753 mmHg 64%
09:00 +24°C° 0 mm 3 m/s 753 mmHg 60%
10:00 +25°C° 0 mm 3 m/s 753 mmHg 56%
11:00 +26°C° 0 mm 4 m/s 753 mmHg 52%
12:00 +27°C° 0 mm 3 m/s 753 mmHg 50%
13:00 +27°C° 0 mm 3 m/s 753 mmHg 49%
14:00 +28°C° 0 mm 3 m/s 753 mmHg 47%
15:00 +27°C° 0 mm 3 m/s 753 mmHg 47%
16:00 +27°C° 0 mm 3 m/s 752 mmHg 47%
17:00 +27°C° 0 mm 3 m/s 752 mmHg 46%
18:00 +26°C° 0 mm 3 m/s 752 mmHg 50%
19:00 +25°C° 0 mm 2 m/s 752 mmHg 53%
20:00 +24°C° 0 mm 2 m/s 752 mmHg 57%
21:00 +23°C° 0 mm 2 m/s 753 mmHg 60%
22:00 +20°C° 0 mm 2 m/s 753 mmHg 63%
23:00 +19°C° 0 mm 3 m/s 753 mmHg 66%

27 Junho, Domingo

Tempo Temperatura Precipitação Vento Pressão Humidade
00:00 +18°C° 0 mm 3 m/s 753 mmHg 68%
01:00 +17°C° 0 mm 2 m/s 754 mmHg 70%
02:00 +17°C° 0 mm 2 m/s 754 mmHg 72%
03:00 +17°C° 0 mm 3 m/s 754 mmHg 70%
04:00 +17°C° 0 mm 3 m/s 754 mmHg 69%
05:00 +18°C° 0 mm 3 m/s 754 mmHg 68%
06:00 +19°C° 0 mm 3 m/s 754 mmHg 62%
07:00 +21°C° 0 mm 4 m/s 754 mmHg 57%
08:00 +22°C° 0 mm 4 m/s 755 mmHg 52%
09:00 +23°C° 0 mm 4 m/s 755 mmHg 49%
10:00 +26°C° 0 mm 4 m/s 755 mmHg 46%
11:00 +27°C° 0 mm 4 m/s 755 mmHg 43%
12:00 +27°C° 0 mm 4 m/s 755 mmHg 42%
13:00 +28°C° 0 mm 4 m/s 754 mmHg 41%
14:00 +29°C° 0 mm 4 m/s 754 mmHg 40%
15:00 +29°C° 0 mm 4 m/s 754 mmHg 39%
16:00 +29°C° 0 mm 4 m/s 754 mmHg 39%
17:00 +29°C° 0 mm 4 m/s 754 mmHg 39%
18:00 +27°C° 0 mm 3 m/s 754 mmHg 45%
19:00 +26°C° 0 mm 3 m/s 754 mmHg 50%
20:00 +25°C° 0 mm 2 m/s 753 mmHg 56%
21:00 +23°C° 0 mm 2 m/s 754 mmHg 60%
22:00 +21°C° 0 mm 2 m/s 754 mmHg 63%
23:00 +19°C° 0 mm 3 m/s 754 mmHg 67%
Mostrar mais

Necessitamos do seu Consentimento

A Meteoprog e os seus Fornecedores de Serviços podem armazenar e aceder a dados pessoais como cookies, identificadores do dispositivo ou outras tecnologias semelhantes existentes no seu dispositivo e processar estes dados para personalizar conteúdos e anúncios, assim como funcionalidades nas redes sociais e análise de tráfego.

  • Armazenar e/ou aceder a informações no seu dispositivo

    Os cookies, identificadores do dispositivo ou outras informações podem ser armazenados ou acedidos no seu dispositivo, para os fins acima indicados.

  • Anúncios e conteúdos personalizados, medição de anúncios e conteúdos, dados sobre o público-alvo e desenvolvimento de produtos

    Os anúncios e os conteúdos podem ser personalizados com base num perfil. Podem ser adicionados dados adicionais para uma maior personalização dos anúncios e dos conteúdos. A eficácia dos anúncios e dos conteúdos pode ser medida. Podem ser obtidas informações sobre o público que visualizou os anúncios e os conteúdos. Estes dados podem ser usados para desenvolver ou melhorar sistemas, softwares ou a experiência do utilizador.

Ao clicar em "Eu concordo”, permitirá o uso de cookies, identificadores do dispositivo e web beacons mencionados ou outras tecnologias semelhantes. As configurações do navegador do seu dispositivo podem ser alteradas.

Para certos fins, podem ser invocados interesses legítimos ao invés de consentimento. Pode ler mais informação sobre este assunto na nossa Política de Privacidade e Cookies.